目前日期文章:201409 (128)

瀏覽方式: 標題列表 簡短摘要
發表時間 文章標題 人氣 留言
2014-09-07 【柏之暢】薑黃蠔蜆錠(120粒錠-盒)-2盒-組 (0) (0)
2014-09-07 泰國限定Pocky香濃牛奶棒-60入 (0) (0)
2014-09-07 PS Mall 側翼黏貼式加內托上薄下厚款 一片式隱形BRA胸罩 H242 (0) (0)
2014-09-07 農心 天婦羅海鮮烏龍杯麵x12杯(62g-杯) (0) (0)
2014-09-07 (只有今天!)allin 、PPC 全系列任選一件結帳85折! (1) (0)
2014-09-07 先麥 綜合小酥餅(12入) (0) (0)
2014-09-07 《Sundown日落恩賜》每日綜合維生素+礦物質錠(100錠-瓶) (0) (0)
2014-09-07 新造茗茶 阿里山精選極品高山茶(300gx2罐) (0) (0)
2014-09-04 韓國進口手工MYSTYLE 手工訂製紅色蝴蝶髮飾 1入 (4) (0)
2014-09-04 LEGO樂高 城市系列60056 拖車 (1) (0)
2014-09-04 奇哥 雲朵羊紗布組 (包巾x1+澡巾x2+方巾x2) (1) (0)
2014-09-04 英國品牌 Brother Max 3 合 1 防水攜帶圍兜 (0) (0)
2014-09-04 Snoopy史努比 腳印塗鴉輕巧舒適寶寶學步鞋-粉(12.0-14.0) (0) (0)
2014-09-04 GooDY 93%紐西蘭鮮肉主食貓罐頭-五口味各一(共5罐) (3) (0)
2014-09-04 Amuzinc酷比樂 台灣製ST兒童安全玩具魔天球(附3個球) SB-1 (0) (0)
2014-09-04 任選-KU.KU酷咕鴨 時尚條紋初生褲 ( 06-1A) (0) (0)
2014-09-04 新鷹格 活力滋 幼犬 三種魚 雞肉配方 6磅 X 2包 (0) (0)
2014-09-04 拉拉熊梅花小鹿系列毛絨小公仔吊飾。小雞 (0) (0)
2014-09-04 [任選] 片式環保布尿布-標準2入 (0) (0)
2014-09-04 Kinetic Sand 動力沙5KG (1) (0)
2014-09-04 美國 aden+anais單層薄料嬰兒睡眠袋 - 金魚AA8039_M (0) (0)
2014-09-04 iSFun 旅行專用 雙開衣物盥洗包 三色可選 (0) (0)
2014-09-04 美國Baby GUND花辦安撫巾禮盒-柑橘甜心 (1) (0)
2014-09-04 BRUDER 1-16 垃圾桶補充包 (0) (0)
2014-09-04 紐西蘭Addiction 幼犬無穀鹿肉寵食犬糧1.8kg 1入 (0) (0)
2014-09-04 Octapus經典牛皮豆豆鞋任選2雙1980元 (0) (0)
2014-09-04 雙面時尚教主 (0) (0)
2014-09-04 Cremmie-三明治固齒器5件組 (0) (0)
«123